{"data":{"norad_id":50830,"epoch":"2026-09-19T21:24:37.641312Z","epoch_age_seconds":100769,"freshness":"FRESH","line1":"1 50830U 22001AD  26262.89210233 -.00000453  00000+0 -22938-5 0  9999","line2":"2 50830  53.1612  12.2009 0000941  82.5061 277.6048 15.34393508259793","mean_motion":15.34393508,"eccentricity":9.41e-5,"inclination_deg":53.1612,"raan_deg":12.2009,"arg_perigee_deg":82.5061,"mean_anomaly_deg":277.6048,"bstar":-2.2938e-6,"rev_number":25979,"period_min":93.848155150041,"perigee_km":462.07881098494,"apogee_km":463.36626074959,"semimajor_km":6840.8595358673,"source":"CELESTRAK","updated_at":"2026-09-20T09:00:39.579771Z"}}